Location: Newark
(43.5831°N, 21.3381°E)
Time: 01:29:37
(UTC+00:00)

Envisat - Pass Details

Date: 19 December 2019
Orbit: 764 x 766 km, 98.1° (Epoch: 23 January)

Event Time Altitude Azimuth Distance (km) Brightness Sun altitude
Rises 15:22:19 0° 131° (SE) 3,223 6.0 -4.3°
Reaches altitude 10° 15:24:57 10° 119° (ESE) 2,301 5.2 -4.8°
Maximum altitude 15:29:02 25° 65° (ENE) 1,508 4.0 -5.4°
Drops below altitude 10° 15:33:08 10° 11° (N) 2,313 5.1 -6.1°
Sets 15:35:47 0° 359° (N) 3,244 6.0 -6.5°
